When you browse on this site, cookies collect data to enhance your experience and personalize the content and advertising you see.
Visit our Privacy Policy to learn more. By continuing to use the site, you agree to this use of cookies and data.
  • In Österreich
  • Länderverzeichnis
  • Für 7 Tage
  • Wassertemperatur
  • Satellitenkarten
  • Wetterkarte
  • News
  • Widgets
  • user-avatar
    Anmelden

    Stündliche Wetter Herāt

    Heute, 22 April, Montag

    Zeit Temperatur Niederschläge Wind Luftdruck Luftfeuchtigkeit
    00:00 +13°C° 0 mm 4 m/S 678 mmHg 65%
    01:00 +13°C° 0 mm 4 m/S 678 mmHg 65%
    02:00 +13°C° 0 mm 4 m/S 678 mmHg 65%
    03:00 +13°C° 0 mm 3 m/S 677 mmHg 65%
    04:00 +12°C° 0 mm 3 m/S 677 mmHg 66%
    05:00 +13°C° 0 mm 3 m/S 677 mmHg 63%
    06:00 +14°C° 0 mm 3 m/S 678 mmHg 60%
    07:00 +14°C° 0 mm 3 m/S 678 mmHg 57%
    08:00 +18°C° 0 mm 3 m/S 678 mmHg 51%
    09:00 +20°C° 0 mm 3 m/S 678 mmHg 44%
    10:00 +23°C° 0 mm 2 m/S 678 mmHg 37%
    11:00 +25°C° 0 mm 3 m/S 678 mmHg 34%
    12:00 +26°C° 0 mm 3 m/S 678 mmHg 31%
    13:00 +28°C° 0 mm 3 m/S 678 mmHg 29%
    14:00 +28°C° 0 mm 3 m/S 678 mmHg 28%
    15:00 +28°C° 0 mm 3 m/S 678 mmHg 28%
    16:00 +29°C° 0 mm 4 m/S 677 mmHg 28%
    17:00 +27°C° 0 mm 3 m/S 677 mmHg 33%
    18:00 +26°C° 0 mm 3 m/S 677 mmHg 38%
    19:00 +24°C° 0 mm 2 m/S 677 mmHg 43%
    20:00 +24°C° 0.2 mm 3 m/S 677 mmHg 45%
    21:00 +24°C° 0.2 mm 3 m/S 677 mmHg 47%
    22:00 +22°C° 0.2 mm 3 m/S 677 mmHg 49%
    23:00 +22°C° 0.2 mm 3 m/S 677 mmHg 49%

    Morgen, 23 April, Dienstag

    Zeit Temperatur Niederschläge Wind Luftdruck Luftfeuchtigkeit
    00:00 +22°C° 0.2 mm 4 m/S 676 mmHg 50%
    01:00 +21°C° 0.2 mm 5 m/S 676 mmHg 50%
    02:00 +22°C° 0 mm 5 m/S 676 mmHg 49%
    03:00 +22°C° 0 mm 5 m/S 675 mmHg 47%
    04:00 +22°C° 0 mm 6 m/S 675 mmHg 45%
    05:00 +23°C° 0 mm 6 m/S 676 mmHg 44%
    06:00 +23°C° 0 mm 6 m/S 676 mmHg 43%
    07:00 +24°C° 0 mm 7 m/S 676 mmHg 41%
    08:00 +27°C° 0 mm 7 m/S 677 mmHg 35%
    09:00 +29°C° 0 mm 8 m/S 677 mmHg 30%
    10:00 +32°C° 0 mm 9 m/S 678 mmHg 24%
    11:00 +32°C° 0 mm 8 m/S 677 mmHg 26%
    12:00 +32°C° 0 mm 8 m/S 677 mmHg 27%
    13:00 +30°C° 0 mm 7 m/S 677 mmHg 29%
    14:00 +27°C° 3.5 mm 7 m/S 676 mmHg 45%
    15:00 +22°C° 3.5 mm 7 m/S 675 mmHg 61%
    16:00 +18°C° 3.5 mm 7 m/S 674 mmHg 77%
    17:00 +17°C° 3 mm 7 m/S 675 mmHg 76%
    18:00 +17°C° 3 mm 7 m/S 675 mmHg 76%
    19:00 +17°C° 3 mm 7 m/S 676 mmHg 76%
    20:00 +16°C° 0.6 mm 8 m/S 676 mmHg 74%
    21:00 +16°C° 0.6 mm 9 m/S 677 mmHg 71%
    22:00 +14°C° 0.6 mm 10 m/S 678 mmHg 69%
    23:00 +13°C° 1.1 mm 11 m/S 677 mmHg 68%

    übermorgen, 24 April, Mittwoch

    Zeit Temperatur Niederschläge Wind Luftdruck Luftfeuchtigkeit
    00:00 +12°C° 1.1 mm 11 m/S 677 mmHg 66%
    01:00 +11°C° 1.1 mm 11 m/S 677 mmHg 64%
    02:00 +11°C° 0.3 mm 11 m/S 678 mmHg 68%
    03:00 +9°C° 0.3 mm 11 m/S 678 mmHg 71%
    04:00 +9°C° 0.3 mm 10 m/S 678 mmHg 75%
    05:00 +8°C° 0.2 mm 10 m/S 679 mmHg 74%
    06:00 +8°C° 0.2 mm 10 m/S 679 mmHg 72%
    07:00 +8°C° 0.2 mm 10 m/S 680 mmHg 71%
    08:00 +8°C° 0 mm 10 m/S 680 mmHg 68%
    09:00 +9°C° 0 mm 10 m/S 681 mmHg 65%
    10:00 +9°C° 0 mm 10 m/S 682 mmHg 62%
    11:00 +11°C° 0 mm 10 m/S 682 mmHg 60%
    12:00 +11°C° 0 mm 10 m/S 682 mmHg 58%
    13:00 +12°C° 0 mm 10 m/S 682 mmHg 55%
    14:00 +12°C° 0 mm 10 m/S 682 mmHg 55%
    15:00 +11°C° 0 mm 10 m/S 682 mmHg 55%
    16:00 +11°C° 0 mm 10 m/S 681 mmHg 54%
    17:00 +10°C° 0 mm 9 m/S 682 mmHg 57%
    18:00 +8°C° 0 mm 9 m/S 682 mmHg 59%
    19:00 +7°C° 0 mm 8 m/S 682 mmHg 61%
    20:00 +7°C° 0 mm 8 m/S 682 mmHg 61%
    21:00 +6°C° 0 mm 8 m/S 683 mmHg 62%
    22:00 +6°C° 0 mm 7 m/S 683 mmHg 62%
    23:00 +6°C° 0 mm 7 m/S 683 mmHg 62%

    25 April, Donnerstag

    Zeit Temperatur Niederschläge Wind Luftdruck Luftfeuchtigkeit
    00:00 +6°C° 0 mm 7 m/S 683 mmHg 63%
    01:00 +6°C° 0 mm 7 m/S 682 mmHg 63%
    02:00 +5°C° 0 mm 6 m/S 682 mmHg 64%
    03:00 +5°C° 0 mm 6 m/S 682 mmHg 66%
    04:00 +5°C° 0 mm 6 m/S 682 mmHg 67%
    05:00 +5°C° 0 mm 6 m/S 683 mmHg 64%
    06:00 +7°C° 0 mm 6 m/S 683 mmHg 61%
    07:00 +7°C° 0 mm 6 m/S 684 mmHg 58%
    08:00 +9°C° 0 mm 6 m/S 684 mmHg 53%
    09:00 +10°C° 0 mm 5 m/S 684 mmHg 47%
    10:00 +13°C° 0 mm 5 m/S 684 mmHg 42%
    11:00 +14°C° 0 mm 5 m/S 684 mmHg 39%
    12:00 +15°C° 0 mm 5 m/S 683 mmHg 37%
    13:00 +15°C° 0 mm 5 m/S 683 mmHg 35%
    14:00 +16°C° 0 mm 5 m/S 683 mmHg 36%
    15:00 +16°C° 0 mm 5 m/S 683 mmHg 36%
    16:00 +16°C° 0 mm 5 m/S 682 mmHg 37%
    17:00 +15°C° 0 mm 6 m/S 682 mmHg 42%
    18:00 +14°C° 0 mm 6 m/S 683 mmHg 46%
    19:00 +13°C° 0 mm 6 m/S 683 mmHg 51%
    20:00 +11°C° 0 mm 6 m/S 683 mmHg 51%
    21:00 +11°C° 0 mm 6 m/S 683 mmHg 52%
    22:00 +10°C° 0 mm 5 m/S 683 mmHg 52%
    23:00 +10°C° 0 mm 5 m/S 683 mmHg 53%

    26 April, Freitag

    Zeit Temperatur Niederschläge Wind Luftdruck Luftfeuchtigkeit
    00:00 +9°C° 0 mm 5 m/S 683 mmHg 53%
    01:00 +9°C° 0 mm 5 m/S 683 mmHg 54%
    02:00 +8°C° 0 mm 4 m/S 682 mmHg 54%
    03:00 +8°C° 0 mm 4 m/S 682 mmHg 54%
    04:00 +8°C° 0 mm 4 m/S 682 mmHg 54%
    05:00 +8°C° 0 mm 4 m/S 683 mmHg 51%
    06:00 +9°C° 0 mm 5 m/S 683 mmHg 47%
    07:00 +10°C° 0 mm 5 m/S 683 mmHg 44%
    08:00 +12°C° 0 mm 5 m/S 684 mmHg 39%
    09:00 +14°C° 0 mm 5 m/S 684 mmHg 35%
    10:00 +15°C° 0 mm 6 m/S 684 mmHg 30%
    11:00 +16°C° 0 mm 6 m/S 684 mmHg 29%
    12:00 +17°C° 0 mm 6 m/S 683 mmHg 28%
    13:00 +19°C° 0 mm 6 m/S 683 mmHg 27%
    14:00 +17°C° 0 mm 6 m/S 683 mmHg 29%
    15:00 +17°C° 0 mm 7 m/S 683 mmHg 30%
    16:00 +17°C° 0 mm 7 m/S 682 mmHg 32%
    17:00 +16°C° 0 mm 7 m/S 683 mmHg 35%
    18:00 +15°C° 0 mm 7 m/S 683 mmHg 39%
    19:00 +14°C° 0 mm 7 m/S 683 mmHg 42%
    20:00 +13°C° 0 mm 6 m/S 683 mmHg 44%
    21:00 +13°C° 0 mm 6 m/S 683 mmHg 45%
    22:00 +11°C° 0 mm 6 m/S 683 mmHg 47%
    23:00 +11°C° 0 mm 6 m/S 683 mmHg 47%

    27 April, Samstag

    Zeit Temperatur Niederschläge Wind Luftdruck Luftfeuchtigkeit
    00:00 +10°C° 0 mm 6 m/S 683 mmHg 48%
    01:00 +10°C° 0 mm 6 m/S 682 mmHg 48%
    02:00 +9°C° 0 mm 5 m/S 682 mmHg 48%
    03:00 +9°C° 0 mm 5 m/S 682 mmHg 48%
    04:00 +9°C° 0 mm 5 m/S 682 mmHg 48%
    05:00 +9°C° 0 mm 6 m/S 683 mmHg 45%
    06:00 +10°C° 0 mm 6 m/S 683 mmHg 42%
    07:00 +11°C° 0 mm 6 m/S 683 mmHg 40%
    08:00 +13°C° 0 mm 6 m/S 684 mmHg 36%
    09:00 +15°C° 0 mm 6 m/S 684 mmHg 33%
    10:00 +16°C° 0 mm 7 m/S 684 mmHg 30%
    11:00 +17°C° 0 mm 6 m/S 684 mmHg 30%
    12:00 +19°C° 0 mm 6 m/S 683 mmHg 29%
    13:00 +19°C° 0 mm 6 m/S 683 mmHg 28%
    14:00 +19°C° 0 mm 6 m/S 683 mmHg 29%
    15:00 +19°C° 0 mm 6 m/S 682 mmHg 30%
    16:00 +19°C° 0 mm 6 m/S 682 mmHg 31%
    17:00 +17°C° 0 mm 6 m/S 682 mmHg 35%
    18:00 +16°C° 0 mm 6 m/S 682 mmHg 38%
    19:00 +15°C° 0 mm 6 m/S 683 mmHg 42%
    20:00 +14°C° 0 mm 5 m/S 683 mmHg 43%
    21:00 +13°C° 0 mm 5 m/S 683 mmHg 45%
    22:00 +13°C° 0 mm 5 m/S 683 mmHg 46%
    23:00 +12°C° 0 mm 4 m/S 683 mmHg 46%
    Mehr zeigen